Weather Roundup
Issued by NWS Chicago, IL

Home | Current Version | Previous Version | Graphics & Text | Print | Product List | Glossary On
Versions: 1 2 3 4 5 6 7 8 9 10 11 12 13 14 15 16 17 18 19 20 21 22 23 24 25 26 27 28 29 30 31 32 33 34 35 36 37 38 39 40 41 42 43 44 45 46 47 48 49 50
000
NZUS59 KLOT 111508
HRRLOT

CHICAGO AREA WEATHER ROUNDUP
NATIONAL WEATHER SERVICE CHICAGO/ROMEOVILLE IL
900 AM CST MON DEC 11 2017

NOTE: "FAIR" INDICATES FEW OR NO CLOUDS BELOW 12,000 FEET WITH NO
SIGNIFICANT WEATHER AND/OR OBSTRUCTIONS TO VISIBILITY.

* THESE STATIONS ARE NOT UNDER NWS QUALITY CONTROL. THEY ALSO MAY NOT
  REPORT WEATHER SUCH AS PRECIPITATION OR FOG.

ILZ005-006-012>014-019>023-111600-
NORTHEAST ILLINOIS

CITY           SKY/WX    TMP DP  RH WIND       PRES   REMARKS
OHARE          CLOUDY    30  22  72 S12       29.89F WCI  20
MIDWAY         PTSUNNY   30  22  72 S12G21    29.91F WCI  20
AURORA         PTSUNNY   29  24  82 SE12      29.88F WCI  19
LANSING*       CLOUDY    29  24  82 S10       29.92F WCI  19
WAUKEGAN       CLOUDY    29  22  75 S9        29.87F WCI  20
DUPAGE AIRPORT PTSUNNY   29  24  82 S9        29.87F HAZE    WCI  20
WHEELING       CLOUDY    31  23  72 S14       29.91F WCI  21
KANKAKEE*      CLOUDY    30  23  75 S9        29.91F WCI  21
MORRIS*        CLOUDY    30  24  79 S8        29.89F WCI  22
LEWIS AIRPORT* CLOUDY    29  24  81 S10       29.90F WCI  20
NORTHERLY ISL    N/A     30  22  72 S8          N/A  WCI  23
$$

WIZ051-052-058>065-066-070>072-111600-
SOUTHEAST WISCONSIN

CITY           SKY/WX    TMP DP  RH WIND       PRES   REMARKS
MILWAUKEE      CLOUDY    27  23  85 S9        29.87F WCI  18
KENOSHA*       CLOUDY    28  22  78 S8        29.87F WCI  20
RACINE*        CLOUDY    27  23  85 S6        29.89F WCI  20
BURLINGTON     CLOUDY    35  33  94 S6        29.86F WCI  30
WAUKESHA       CLOUDY    23  19  86 S6        29.86F WCI  16
WEST BEND      CLOUDY    25  23  93 S5        29.84F WCI  19
$$

INZ001>003-010>013-019-020-111600-
NORTHWEST INDIANA

CITY           SKY/WX    TMP DP  RH WIND       PRES   REMARKS
GARY*          PTSUNNY   30  21  69 S12       29.92F WCI  21
MICHIGAN CITY* NOT AVBL
RENSSELAER*    NOT AVBL
VALPARAISO     CLOUDY    30  22  72 S13       29.93F WCI  20
$$

LMZ740>746-111600-
SOUTHERN LAKE MICHIGAN

STATION/POSITION TIME  SKY/WX   TEMP WIND        PRES    VSBY
                                AIR  DIR/SP/G
                 (UTC)          (F)  (DEG/KT/KT) (MB)    (MI)
HARRISON CRIB    1440            30  190/ 18/ 20   N/A
BURNHAM HARBOR   1500            30  200/  7/ 13   N/A
CALUMET HARBOR   1448            29  170/  7/ 13 1012.5F
BURNS HARBOR     1502            29  190/ 12/ 18 1013.9
MICHIGAN CITY    1440            28  160/ 12/ 17   N/A
$$

ABBREVIATIONS USED IN REMARKS
   TC - TEMPERATURE IN CELSIUS
  WCI - WIND CHILL INDEX
   HX - HEAT INDEX
  VSB - VISIBILITY
$$




USA.gov is the U.S. government's official web portal to all federal, state and local government web resources and services.